Presure
191 200 196 202 192 212 225 240 241 238 252 277 358 360 354 349 325 308 289 334 448 434 428 417 412 407 403 399 399 400 396 418 427 420 395 411 441 457 418 318 322 350 345
192 203 190 209 224 238 228 246 240 275 258 285 280 285 278 307 307 445 439 430 423 416 411 404 399 395 391 387 387 387 386 392 395 408 413 387 402 403 406 421 404 315 333
204 211 213 221 227 241 241 264 292 283 294 257 270 324 358 443 430 420 414 412 408 401 397 392 387 383 382 385 382 378 377 380 389 393 389 394 389 373 380 408 413 421 444
215 213 227 230 238 258 321 303 317 293 309 320 358 441 430 419 406 409 400 389 385 374 366 365 365 363 361 363 372 374 369 365 369 390 386 387 388 392 393 390 405 409 408
217 236 242 254 285 328 326 319 317 319 351 450 428 410 403 397 406 393 375 368 366 362 358 357 356 355 356 359 360 370 366 362 361 369 380 376 382 387 392 396 403 408 408
238 252 269 267 359 349 345 338 349 451 429 413 405 408 397 398 386 367 356 354 353 352 375 380 466 380 339 340 354 360 363 356 354 356 368 368 368 367 374 374 380 386 398
264 258 328 347 339 334 333 443 436 438 479 450 420 397 389 375 363 351 345 351 365 408 418 417 425 439 456 470 335 353 362 353 349 351 359 363 355 356 360 358 355 361 369
281 288 348 341 334 370 434 439 497 475 445 414 395 384 365 351 349 345 359 368 409 401 416 428 433 439 439 444 394 339 363 352 347 351 360 365 365 361 361 359 360 362 364
286 345 339 322 427 432 455 441 404 409 410 391 375 359 346 340 339 351 364 402 413 434 437 440 452 466 472 456 342 331 377 355 343 355 361 356 354 350 351 353 351 354 352
310 344 337 442 479 446 417 416 433 406 385 365 350 337 338 335 348 356 399 435 432 428 434 441 449 475 458 453 465 318 356 358 347 358 350 343 339 334 328 326 324 341 352
347 352 464 468 467 463 463 429 400 380 360 346 334 334 331 344 341 392 432 416 429 435 448 460 463 462 462 465 478 324 364 356 361 343 333 324 309 301 297 300 309 323 323
334 464 518 496 482 469 420 393 376 358 343 332 327 331 322 338 357 423 409 408 407 411 420 433 449 467 482 471 319 361 361 353 336 321 304 298 302 299 291 290 296 299 300
452 448 420 463 430 398 390 373 355 343 333 327 330 318 334 332 383 406 398 395 395 399 406 417 431 444 334 348 364 361 341 338 316 302 299 290 286 291 302 304 305 303 319
446 413 392 382 392 389 372 353 346 332 328 324 326 307 334 328 384 399 391 384 384 388 394 383 328 331 349 356 359 339 335 309 295 293 289 287 290 292 297 293 302 292 301
424 393 383 367 370 367 358 342 333 324 326 328 317 313 333 325 382 396 382 377 370 365 342 321 316 340 347 347 337 321 289 290 294 286 287 287 283 286 286 288 289 290 292
403 373 362 360 369 359 349 335 326 323 324 328 307 340 329 324 379 395 381 368 355 344 323 313 310 326 321 301 307 287 296 294 285 287 287 283 284 280 281 277 288 284 288
380 359 348 364 371 357 339 326 321 326 318 317 305 338 322 328 337 398 379 365 349 337 318 309 304 302 303 294 303 292 295 283 286 284 285 287 279 284 279 280 287 287 277
361 349 360 352 358 349 329 325 325 326 319 303 325 336 314 328 325 389 381 365 346 333 319 306 302 299 298 312 292 296 289 278 283 285 279 286 276 277 277 278 279 284 282
345 341 351 349 345 334 330 325 331 319 305 318 329 350 311 322 327 349 391 369 353 335 320 309 302 295 293 309 304 292 296 287 278 283 278 278 283 277 278 278 284 291 277
323 337 350 347 339 333 328 332 326 305 312 316 306 336 311 321 330 328 378 378 360 347 326 315 303 295 295 298 307 297 286 290 275 291 278 275 279 273 278 277 278 281 278
341 339 347 351 338 334 334 321 306 314 318 306 306 293 321 328 328 328 325 379 369 355 345 322 312 298 296 295 301 304 281 297 290 273 289 280 272 276 273 275 275 272 280
348 344 347 355 344 334 315 312 319 312 310 314 301 313 327 330 330 328 323 341 377 366 353 342 327 311 300 296 291 304 294 282 288 293 277 285 285 277 275 274 276 275 277
352 347 349 333 315 309 317 316 301 317 315 313 317 327 329 331 332 330 323 325 387 381 364 352 341 333 313 310 298 296 300 289 282 277 291 279 279 286 285 284 281 283 281
358 348 317 307 312 320 292 306 309 306 317 320 321 324 329 334 335 335 332 329 332 427 373 367 351 342 334 326 313 303 299 296 296 289 280 280 287 275 276 284 280 278 279
354 304 309 316 296 292 305 297 307 306 324 323 326 329 331 334 337 338 338 337 340 345 423 367 376 354 340 336 330 319 308 304 301 289 292 292 289 284 289 288 288 287 288
304 317 317 290 294 297 300 304 313 316 319 324 325 329 333 336 344 346 350 353 353 355 379 411 368 369 358 344 336 331 328 320 307 300 304 299 292 289 288 285 285 286 287
Wind_Speed
104 106 109 112 105 121 127 129 126 126 137 138 110 110 111 111 115 119 119 112 61 60 58 59 56 53 52 50 46 44 47 48 48 49 55 52 45 52 79 104 95 97 90
105 111 106 117 125 130 124 133 128 139 131 130 126 122 119 119 118 69 65 61 58 57 55 54 53 52 50 49 47 44 43 44 47 46 47 55 49 49 61 76 93 87 89
112 119 117 124 128 135 133 132 131 127 121 118 118 116 109 71 68 66 60 58 56 54 53 51 49 48 48 48 48 45 44 42 41 44 44 48 52 57 60 59 66 69 69
120 120 131 127 132 134 121 120 114 119 115 116 114 74 68 65 64 57 56 58 56 55 57 56 54 52 51 50 48 47 45 40 40 40 41 41 45 49 53 56 57 63 68
122 130 132 133 128 117 113 112 112 113 118 75 72 71 66 63 57 55 56 58 58 56 57 57 56 53 49 47 50 47 44 40 37 36 38 36 35 38 40 42 44 50 56
129 134 132 130 118 111 109 109 114 78 75 72 67 60 58 57 55 55 58 60 60 59 58 59 47 47 46 42 43 47 43 38 35 35 35 34 32 34 34 36 36 40 44
133 130 127 118 117 119 117 86 79 72 50 45 48 52 52 55 55 55 59 60 62 55 53 52 48 44 42 43 34 40 43 38 33 32 32 34 34 35 35 35 38 37 38
129 132 121 117 115 109 80 76 55 44 40 43 47 48 50 54 56 57 60 62 53 56 55 52 48 42 39 39 33 33 38 36 31 28 28 31 29 30 30 31 31 33 37
127 122 119 116 88 79 68 61 59 49 41 40 44 48 52 53 57 59 63 56 56 51 47 44 41 38 34 30 29 28 32 32 27 24 21 21 19 20 21 22 26 29 33
127 119 116 78 59 60 61 55 36 39 38 40 45 51 53 54 58 60 58 51 44 41 39 35 30 25 20 21 22 22 22 26 22 20 17 15 14 11 9 13 16 20 30
120 113 70 60 54 48 39 32 37 36 38 41 46 51 51 55 57 55 45 41 33 29 26 22 19 15 13 13 13 17 20 19 21 21 18 15 13 14 18 18 14 17 23
115 68 45 39 36 30 29 34 33 36 37 42 46 48 50 53 55 43 36 29 25 22 21 18 14 10 6 3 13 15 19 26 25 24 20 18 13 11 16 19 18 21 25
69 59 56 32 30 35 32 32 34 37 39 42 45 46 48 51 50 37 29 23 20 17 15 12 9 7 7 8 15 22 30 30 27 22 17 15 16 11 8 9 12 17 13
58 56 54 50 38 32 31 34 34 38 40 42 43 44 47 48 45 30 23 18 14 12 10 8 6 6 9 15 24 30 33 26 19 17 15 14 9 8 9 12 11 17 16
53 52 49 48 40 35 32 33 36 38 41 42 41 43 42 46 41 24 18 12 7 4 9 8 6 9 16 23 27 26 14 15 18 17 16 13 14 13 13 15 16 17 18
49 50 48 45 38 34 31 32 34 39 41 43 43 43 42 43 38 21 14 7 1 6 11 10 9 14 16 12 17 13 16 18 17 18 17 17 16 16 17 19 18 21 20
46 48 48 40 33 31 30 34 35 36 39 41 44 40 40 40 42 19 12 6 6 9 14 14 13 13 15 13 19 17 21 18 19 19 20 18 18 17 20 20 20 19 21
45 45 42 37 32 29 33 34 35 34 36 38 40 38 40 40 39 23 11 9 11 14 17 18 17 17 17 25 18 22 21 20 21 21 20 20 20 21 22 22 22 21 18
45 43 39 35 32 32 33 35 36 34 37 40 39 34 38 37 36 32 13 12 15 18 20 22 21 21 21 28 29 24 28 25 22 25 24 23 24 23 25 25 24 23 21
46 44 37 34 32 33 34 36 33 36 38 38 37 36 39 38 36 32 20 15 18 21 25 25 26 25 26 28 33 31 26 30 25 31 29 27 26 26 27 27 26 25 24
44 41 38 32 32 32 34 33 36 37 37 38 38 38 38 36 35 31 28 17 20 24 27 31 31 30 30 31 34 38 29 35 35 29 35 33 30 30 30 31 29 27 26
39 38 36 31 31 32 34 36 36 36 37 38 38 40 40 37 34 32 29 25 20 26 29 33 36 38 37 36 35 40 39 33 34 39 32 35 37 35 34 34 34 31 29
35 34 33 31 34 37 36 36 39 39 38 39 41 41 39 37 35 32 30 28 22 24 32 34 38 41 44 44 41 41 44 41 37 35 40 37 35 38 39 40 39 39 36
31 30 32 37 36 34 40 40 40 41 42 42 42 43 41 39 36 34 32 30 28 23 27 36 39 41 44 48 49 47 47 46 47 45 41 40 43 39 38 40 38 37 37
29 38 36 34 37 41 40 42 43 44 45 44 44 44 42 41 39 37 35 33 31 29 24 31 38 44 45 47 49 53 52 53 52 46 49 49 47 44 46 45 43 42 41
39 33 31 40 40 41 43 44 46 46 47 47 46 46 45 43 41 39 37 36 34 32 28 26 34 38 45 48 48 50 52 56 55 54 56 55 51 49 46 44 44 45 44
Wind_Direction
305 305 305 306 308 306 306 306 306 306 305 301 301 301 301 300 297 296 297 296 299 296 292 291 289 287 284 280 275 269 267 266 256 250 253 251 243 235 229 245 245 243 237
305 307 307 306 307 306 307 307 307 303 304 300 300 300 300 298 297 305 304 302 297 295 291 288 286 284 281 278 273 269 266 265 261 255 247 250 242 239 235 236 239 238 235
308 309 309 309 309 308 308 305 301 303 300 302 301 301 302 307 307 306 303 300 298 296 294 290 287 284 281 276 272 270 267 265 265 258 251 249 245 244 242 244 242 245 248
309 309 310 310 309 306 305 304 302 303 302 303 304 309 308 307 305 305 302 300 298 296 293 290 286 281 278 276 273 265 263 263 262 260 252 249 248 247 246 245 244 244 245
309 310 310 307 307 309 307 305 304 305 306 310 309 308 308 307 308 307 303 299 297 295 292 290 288 284 279 272 268 264 259 258 261 262 253 247 243 242 243 245 245 246 247
311 309 309 309 312 310 308 308 309 313 311 310 308 307 308 308 309 308 304 301 301 298 296 292 293 283 277 273 266 262 257 256 255 257 254 246 240 238 239 240 242 243 244
312 312 315 315 315 313 313 313 314 313 315 313 310 310 311 311 310 308 305 306 306 303 301 299 295 290 281 272 266 257 252 250 250 253 250 242 239 240 239 243 244 244 244
313 316 317 317 315 313 313 314 318 318 318 314 313 314 313 312 313 312 313 313 310 305 304 299 294 288 280 274 264 256 245 244 244 246 242 240 237 241 242 246 249 247 245
317 318 317 317 314 315 315 315 315 316 317 319 316 316 314 318 316 319 319 317 312 308 304 300 295 289 280 270 262 254 233 233 237 240 221 220 225 234 245 250 253 254 253
321 318 318 314 312 312 313 313 318 317 322 321 319 317 322 320 322 324 322 321 318 314 309 304 301 296 275 263 260 259 230 217 224 210 199 202 213 221 227 240 248 253 255
321 319 318 316 311 309 310 317 319 325 323 323 320 322 324 326 328 328 327 327 332 335 335 328 316 303 285 269 252 252 204 198 179 173 173 163 173 207 228 243 258 266 264
321 322 320 316 313 314 320 320 324 323 324 323 322 324 325 329 332 334 335 338 347 354 0 5 7 7 354 273 235 190 174 161 162 155 168 191 192 209 239 251 263 267 268
324 324 323 324 325 323 324 325 323 324 325 324 326 326 331 333 338 338 339 343 352 1 11 21 37 61 182 172 159 157 160 158 159 173 179 208 229 237 256 266 274 277 303
325 324 323 323 321 323 327 323 325 325 324 326 328 329 334 336 342 339 342 347 2 19 37 84 153 161 149 153 153 158 159 168 192 195 207 218 218 233 245 255 276 265 282
323 322 323 322 321 322 324 325 324 324 326 328 328 331 336 339 342 339 338 346 10 69 142 171 184 151 146 151 159 164 202 201 193 215 216 218 231 241 254 267 276 285 284
321 321 322 321 319 320 322 322 324 327 327 331 331 335 338 341 343 337 331 326 294 178 183 198 196 166 168 189 179 208 202 198 215 215 221 230 234 250 257 266 278 278 287
319 321 322 322 316 318 320 322 327 328 328 331 331 333 336 341 345 334 318 291 238 207 202 213 216 211 201 213 196 209 205 222 221 226 227 231 240 249 259 268 280 282 282
318 321 321 321 322 320 319 323 328 328 328 330 333 331 336 339 342 336 302 273 239 222 215 222 224 227 223 199 223 212 217 230 230 228 237 237 245 252 260 268 274 280 286
319 322 321 321 322 320 320 326 327 329 328 331 333 331 333 336 338 343 293 264 243 230 224 228 230 238 240 215 215 227 222 229 242 236 242 246 247 256 262 270 279 288 273
323 323 322 320 318 319 322 325 329 327 329 330 330 333 333 334 335 337 323 269 250 236 232 229 233 240 240 237 224 230 238 232 246 232 243 249 252 257 263 269 277 283 277
322 323 323 318 318 322 324 327 327 329 329 328 329 329 332 331 331 331 333 296 253 243 235 234 233 237 239 240 236 232 244 235 237 247 239 247 254 257 263 268 273 276 283
319 321 322 319 321 326 328 327 329 329 328 328 327 330 331 330 329 328 326 327 277 249 242 235 233 235 240 240 242 235 240 246 244 241 250 248 251 256 261 267 272 275 280
317 321 322 325 327 328 329 329 327 330 331 330 330 331 330 327 325 324 321 322 301 267 247 243 237 234 238 237 242 242 240 245 249 250 249 251 254 257 261 264 268 274 279
317 321 326 326 328 331 327 329 330 329 332 332 331 331 330 328 326 323 320 317 317 290 263 247 243 238 237 236 238 243 243 245 246 249 252 253 254 256 260 263 266 271 275
320 326 325 328 327 326 329 328 330 330 332 333 331 330 329 328 327 323 320 317 315 312 286 258 249 243 241 240 239 241 244 246 247 253 252 253 255 257 260 263 266 269 272
324 325 326 324 326 328 327 328 332 333 333 331 331 330 330 329 328 325 320 317 314 311 305 276 255 249 244 243 243 242 243 245 249 253 253 255 259 260 262 263 265 269 271